{"data":{"norad_id":51655,"epoch":"2026-09-19T23:46:35.881248Z","epoch_age_seconds":70038,"freshness":"FRESH","line1":"1 51655U 22012AK  26262.99069307  .00000021  00000+0  20849-4 0  9999","line2":"2 51655  87.9200 347.0478 0002339  88.0861 272.0538 13.17648547226172","mean_motion":13.17648547,"eccentricity":0.0002339,"inclination_deg":87.92,"raan_deg":347.0478,"arg_perigee_deg":88.0861,"mean_anomaly_deg":272.0538,"bstar":2.0849e-5,"rev_number":22617,"period_min":109.28559085642,"perigee_km":1191.943939121,"apogee_km":1195.4860514844,"semimajor_km":7571.8519953027,"source":"CELESTRAK","updated_at":"2026-09-20T09:00:44.714656Z"}}